Location: Bay Shore Mobile Home Park
(38.5762°N, 75.0841°W)
Time: 08:58:27
(UTC+00:00)

Cosmos 1812 - Pass Details

Date: 15 November 2025
Orbit: 343 x 353 km, 82.5° (Epoch: 05 December)

Event Time Altitude Azimuth Distance (km) Brightness Sun altitude
Rises 22:27:27 0° 161° (SSE) 2,239 5.9 -8.2°
Reaches altitude 10° 22:29:41 10° 146° (SE) 1,388 4.7 -8.7°
Maximum altitude 22:32:07 23° 91° (E) 862 3.3 -9.1°
Drops below altitude 10° 22:34:34 10° 37° (NE) 1,385 4.4 -9.6°
Enters shadow 22:34:47 - 35° (NE) 1,462 4.5 -9.6°
